EZY293T EGGP-EGAE

Flight info

Callsign EZY293T
Flight time 0h 39m
Altitude 22000
Route WAL M146 IPSET P6 BELZU
Aircraft A320/M-SDE3FGHIRWY/LB1

Departure

Time 2026-04-26 21:25
Airport Liverpool John Lennon Airport (EGGP)

Arrival

Time 2026-04-26 22:04
Airport City of Derry Airport (EGAE)
Time Latitude Longitude Altitude Speed Heading
2026-04-26 20:53 53.33632 -2.85190 90 ft 0 kts 266°
2026-04-26 21:16 53.33633 -2.85165 89 ft 4 kts 265°
2026-04-26 21:16 53.33636 -2.85121 89 ft 4 kts 251°
2026-04-26 21:16 53.33649 -2.85085 86 ft 4 kts 212°
2026-04-26 21:16 53.33666 -2.85075 88 ft 1 kts 175°
2026-04-26 21:17 53.33669 -2.85076 86 ft 0 kts 175°
2026-04-26 21:20 53.33618 -2.85069 87 ft 10 kts 175°
2026-04-26 21:21 53.33553 -2.85058 85 ft 9 kts 166°
2026-04-26 21:21 53.33530 -2.84950 85 ft 16 kts 86°
2026-04-26 21:21 53.33539 -2.84771 85 ft 16 kts 85°
2026-04-26 21:21 53.33547 -2.84581 80 ft 16 kts 85°
2026-04-26 21:22 53.33556 -2.84392 72 ft 16 kts 85°
2026-04-26 21:22 53.33564 -2.84216 79 ft 14 kts 85°
2026-04-26 21:22 53.33572 -2.84056 71 ft 16 kts 85°
2026-04-26 21:23 53.33591 -2.83607 84 ft 17 kts 86°
2026-04-26 21:23 53.33599 -2.83438 89 ft 13 kts 86°
2026-04-26 21:23 53.33569 -2.83329 90 ft 10 kts 139°
2026-04-26 21:23 53.33539 -2.83304 89 ft 0 kts 163°
2026-04-26 21:24 53.33481 -2.83293 83 ft 21 kts 178°
2026-04-26 21:24 53.33435 -2.83436 81 ft 17 kts 266°
2026-04-26 21:24 53.33414 -2.83897 81 ft 81 kts 265°
2026-04-26 21:25 53.33350 -2.85313 125 ft 153 kts 265°
2026-04-26 21:25 53.33258 -2.87047 1036 ft 150 kts 266°
2026-04-26 21:25 53.33162 -2.88784 1838 ft 151 kts 265°
2026-04-26 21:25 53.33061 -2.90631 2203 ft 170 kts 265°
2026-04-26 21:26 53.33152 -2.92698 2523 ft 189 kts 285°
2026-04-26 21:26 53.33705 -2.94785 2961 ft 201 kts 295°
2026-04-26 21:26 53.34335 -2.96905 3516 ft 209 kts 295°
2026-04-26 21:26 53.35006 -2.99183 3891 ft 230 kts 295°
2026-04-26 21:27 53.35759 -3.01751 4009 ft 255 kts 295°
2026-04-26 21:27 53.36549 -3.04441 4012 ft 259 kts 295°
2026-04-26 21:27 53.37344 -3.07153 4013 ft 260 kts 295°
2026-04-26 21:27 53.38143 -3.09867 4010 ft 260 kts 294°
2026-04-26 21:28 53.38951 -3.12578 4011 ft 260 kts 297°
2026-04-26 21:28 53.40067 -3.14931 4139 ft 267 kts 314°
2026-04-26 21:28 53.41389 -3.17139 5145 ft 268 kts 313°
2026-04-26 21:28 53.42700 -3.19363 6204 ft 269 kts 313°
2026-04-26 21:29 53.44015 -3.21616 7185 ft 272 kts 313°
2026-04-26 21:29 53.45344 -3.23900 8119 ft 275 kts 313°
2026-04-26 21:29 53.46691 -3.26208 9040 ft 279 kts 313°
2026-04-26 21:29 53.48059 -3.28545 9972 ft 283 kts 313°
2026-04-26 21:30 53.49457 -3.30938 10633 ft 296 kts 313°
2026-04-26 21:30 53.50952 -3.33499 11044 ft 315 kts 313°
2026-04-26 21:30 53.52484 -3.36123 11763 ft 322 kts 313°
2026-04-26 21:30 53.54064 -3.38833 12575 ft 326 kts 314°
2026-04-26 21:31 53.55662 -3.41576 13389 ft 330 kts 314°
2026-04-26 21:31 53.57279 -3.44360 14181 ft 335 kts 313°
2026-04-26 21:31 53.58736 -3.47433 14874 ft 338 kts 305°
2026-04-26 21:31 53.60102 -3.50685 15574 ft 341 kts 306°
2026-04-26 21:32 53.61480 -3.53961 16275 ft 345 kts 306°
2026-04-26 21:32 53.62874 -3.57275 16959 ft 348 kts 306°
2026-04-26 21:32 53.64283 -3.60621 17647 ft 352 kts 306°
2026-04-26 21:32 53.65685 -3.63958 18327 ft 355 kts 306°
2026-04-26 21:33 53.67119 -3.67375 18965 ft 358 kts 306°
2026-04-26 21:33 53.68562 -3.70819 19575 ft 361 kts 306°
2026-04-26 21:33 53.70014 -3.74288 20204 ft 363 kts 305°
2026-04-26 21:33 53.71472 -3.77781 20812 ft 365 kts 305°
2026-04-26 21:34 53.72940 -3.81307 21390 ft 369 kts 305°
2026-04-26 21:34 53.74418 -3.84864 21960 ft 372 kts 304°
2026-04-26 21:34 53.75908 -3.88461 22246 ft 374 kts 304°
2026-04-26 21:34 53.77377 -3.92016 22303 ft 362 kts 304°
2026-04-26 21:35 53.78800 -3.95456 22303 ft 353 kts 304°
2026-04-26 21:35 53.80183 -3.98800 22306 ft 351 kts 304°
2026-04-26 21:35 53.81578 -4.02178 22308 ft 350 kts 304°
2026-04-26 21:35 53.82971 -4.05555 22311 ft 350 kts 304°
2026-04-26 21:36 53.84360 -4.08932 22313 ft 350 kts 304°
2026-04-26 21:36 53.85281 -4.11173 22306 ft 350 kts 304°
2026-04-26 21:36 53.87136 -4.15696 22303 ft 350 kts 304°
2026-04-26 21:36 53.88524 -4.19082 22301 ft 350 kts 304°
2026-04-26 21:37 53.89907 -4.22462 22301 ft 348 kts 304°
2026-04-26 21:37 53.91285 -4.25830 22306 ft 347 kts 304°
2026-04-26 21:37 53.92644 -4.29151 22313 ft 347 kts 304°
2026-04-26 21:37 53.94018 -4.32520 22307 ft 347 kts 304°
2026-04-26 21:38 53.95388 -4.35885 22312 ft 347 kts 304°
2026-04-26 21:38 53.96759 -4.39262 22309 ft 347 kts 304°
2026-04-26 21:38 53.98127 -4.42631 22315 ft 347 kts 304°
2026-04-26 21:38 53.99495 -4.46003 22306 ft 346 kts 304°
2026-04-26 21:39 54.00865 -4.49375 22310 ft 346 kts 304°
2026-04-26 21:39 54.02307 -4.52652 22306 ft 347 kts 311°
2026-04-26 21:39 54.03940 -4.55674 22304 ft 347 kts 311°
2026-04-26 21:39 54.05551 -4.58657 22309 ft 347 kts 311°
2026-04-26 21:40 54.07184 -4.61688 22312 ft 347 kts 311°
2026-04-26 21:40 54.08814 -4.64722 22313 ft 347 kts 311°
2026-04-26 21:40 54.10442 -4.67755 22303 ft 347 kts 311°
2026-04-26 21:40 54.12071 -4.70788 22308 ft 347 kts 311°
2026-04-26 21:41 54.13700 -4.73830 22313 ft 347 kts 311°
2026-04-26 21:41 54.15326 -4.76870 22318 ft 347 kts 311°
2026-04-26 21:41 54.16949 -4.79915 22322 ft 347 kts 311°
2026-04-26 21:41 54.18569 -4.82961 22315 ft 346 kts 311°
2026-04-26 21:42 54.20190 -4.86006 22320 ft 346 kts 311°
2026-04-26 21:42 54.21787 -4.89001 22322 ft 346 kts 311°
2026-04-26 21:42 54.23406 -4.92041 22323 ft 346 kts 311°
2026-04-26 21:42 54.25022 -4.95080 22323 ft 345 kts 311°
2026-04-26 21:43 54.26636 -4.98121 22320 ft 345 kts 311°
2026-04-26 21:43 54.28250 -5.01168 22320 ft 345 kts 311°
2026-04-26 21:43 54.29861 -5.04214 22313 ft 345 kts 311°
2026-04-26 21:43 54.31471 -5.07261 22317 ft 345 kts 311°
2026-04-26 21:44 54.33080 -5.10311 22324 ft 345 kts 311°
2026-04-26 21:44 54.34689 -5.13364 22320 ft 345 kts 311°
2026-04-26 21:44 54.36280 -5.16385 22324 ft 345 kts 311°
2026-04-26 21:44 54.37889 -5.19444 22317 ft 345 kts 311°
2026-04-26 21:45 54.39498 -5.22498 22329 ft 345 kts 310°
2026-04-26 21:45 54.41102 -5.25549 22336 ft 344 kts 310°
2026-04-26 21:45 54.42700 -5.28603 22334 ft 343 kts 310°
2026-04-26 21:45 54.44273 -5.31617 22331 ft 343 kts 310°
2026-04-26 21:46 54.45869 -5.34661 22339 ft 343 kts 310°
2026-04-26 21:46 54.47498 -5.37651 22332 ft 343 kts 311°
2026-04-26 21:46 54.49151 -5.40601 22332 ft 342 kts 312°
2026-04-26 21:46 54.50767 -5.43598 22333 ft 340 kts 306°
2026-04-26 21:47 54.52041 -5.47013 22326 ft 343 kts 295°
2026-04-26 21:47 54.52908 -5.50927 22313 ft 355 kts 287°
2026-04-26 21:47 54.53661 -5.55004 22310 ft 358 kts 287°
2026-04-26 21:47 54.54416 -5.59098 22313 ft 359 kts 287°
2026-04-26 21:48 54.55174 -5.63199 22322 ft 360 kts 287°
2026-04-26 21:48 54.55925 -5.67247 22331 ft 359 kts 287°
2026-04-26 21:48 54.56681 -5.71325 21975 ft 356 kts 287°
2026-04-26 21:48 54.57432 -5.75370 21453 ft 353 kts 287°
2026-04-26 21:49 54.58172 -5.79356 20678 ft 347 kts 287°
2026-04-26 21:49 54.58901 -5.83295 19804 ft 343 kts 288°
2026-04-26 21:49 54.59617 -5.87199 18975 ft 340 kts 288°
2026-04-26 21:49 54.60324 -5.91069 18106 ft 336 kts 288°
2026-04-26 21:50 54.61024 -5.94895 17233 ft 333 kts 287°
2026-04-26 21:50 54.61482 -5.97404 16685 ft 330 kts 287°
2026-04-26 21:50 54.62376 -6.02314 15967 ft 315 kts 287°
2026-04-26 21:50 54.63017 -6.05841 15605 ft 301 kts 287°
2026-04-26 21:51 54.63629 -6.09221 15233 ft 290 kts 287°
2026-04-26 21:51 54.64218 -6.12475 14887 ft 279 kts 287°
2026-04-26 21:51 54.64797 -6.15692 14549 ft 281 kts 287°
2026-04-26 21:51 54.65381 -6.18925 14191 ft 283 kts 287°
2026-04-26 21:52 54.66180 -6.22033 13792 ft 285 kts 300°
2026-04-26 21:52 54.67382 -6.24753 13418 ft 286 kts 313°
2026-04-26 21:52 54.68874 -6.27034 13031 ft 287 kts 318°
2026-04-26 21:52 54.70396 -6.29260 12654 ft 286 kts 318°
2026-04-26 21:53 54.71895 -6.31452 12283 ft 286 kts 318°
2026-04-26 21:53 54.73415 -6.33679 11898 ft 286 kts 318°
2026-04-26 21:53 54.74932 -6.35904 11514 ft 286 kts 318°
2026-04-26 21:53 54.76446 -6.38129 11121 ft 286 kts 318°
2026-04-26 21:54 54.77959 -6.40352 10797 ft 283 kts 318°
2026-04-26 21:54 54.79452 -6.42544 10345 ft 277 kts 318°
2026-04-26 21:54 54.80914 -6.44693 9916 ft 276 kts 318°
2026-04-26 21:54 54.82372 -6.46841 9510 ft 275 kts 318°
2026-04-26 21:55 54.83805 -6.48951 9120 ft 273 kts 317°
2026-04-26 21:55 54.85252 -6.51086 8704 ft 272 kts 317°
2026-04-26 21:55 54.86691 -6.53211 8293 ft 271 kts 317°
2026-04-26 21:55 54.88125 -6.55330 7886 ft 270 kts 317°
2026-04-26 21:56 54.89553 -6.57445 7465 ft 269 kts 317°
2026-04-26 21:56 54.90976 -6.59555 7074 ft 268 kts 317°
2026-04-26 21:56 54.92388 -6.61652 6636 ft 267 kts 317°
2026-04-26 21:56 54.93792 -6.63737 6222 ft 265 kts 318°
2026-04-26 21:57 54.95182 -6.65803 5811 ft 263 kts 318°
2026-04-26 21:57 54.96561 -6.67856 5450 ft 259 kts 318°
2026-04-26 21:57 54.97934 -6.69900 4977 ft 259 kts 318°
2026-04-26 21:57 54.99292 -6.71927 4439 ft 262 kts 318°
2026-04-26 21:58 55.00652 -6.73957 4258 ft 250 kts 318°
2026-04-26 21:58 55.01929 -6.75863 4190 ft 234 kts 318°
2026-04-26 21:58 55.03130 -6.77654 4101 ft 221 kts 318°
2026-04-26 21:58 55.04272 -6.79362 4006 ft 211 kts 318°
2026-04-26 21:59 55.05362 -6.80998 3921 ft 202 kts 318°
2026-04-26 21:59 55.06402 -6.82556 3844 ft 190 kts 317°
2026-04-26 21:59 55.07368 -6.84004 3722 ft 178 kts 317°
2026-04-26 21:59 55.08234 -6.85530 3430 ft 174 kts 304°
2026-04-26 22:00 55.08723 -6.87349 3222 ft 163 kts 285°
2026-04-26 22:00 55.08829 -6.89259 3050 ft 157 kts 268°
2026-04-26 22:00 55.08598 -6.91106 2850 ft 156 kts 256°
2026-04-26 22:00 55.08289 -6.92909 2643 ft 155 kts 256°
2026-04-26 22:01 55.07982 -6.94701 2437 ft 154 kts 256°
2026-04-26 22:01 55.07675 -6.96488 2224 ft 153 kts 256°
2026-04-26 22:01 55.07369 -6.98265 2019 ft 153 kts 256°
2026-04-26 22:01 55.07062 -7.00048 1806 ft 153 kts 255°
2026-04-26 22:02 55.06754 -7.01832 1586 ft 154 kts 255°
2026-04-26 22:02 55.06551 -7.03014 1457 ft 154 kts 255°
2026-04-26 22:02 55.06158 -7.05285 1181 ft 141 kts 255°
2026-04-26 22:02 55.05877 -7.06912 968 ft 139 kts 254°
2026-04-26 22:03 55.05598 -7.08523 783 ft 138 kts 254°
2026-04-26 22:03 55.05321 -7.10123 599 ft 137 kts 254°
2026-04-26 22:03 55.05045 -7.11715 411 ft 137 kts 253°
2026-04-26 22:03 55.04770 -7.13303 237 ft 136 kts 253°
2026-04-26 22:04 55.04495 -7.14885 46 ft 136 kts 253°
2026-04-26 22:04 55.04268 -7.16188 16 ft 56 kts 253°
2026-04-26 22:04 55.04209 -7.16519 19 ft 23 kts 252°
2026-04-26 22:04 55.04164 -7.16784 26 ft 23 kts 253°
2026-04-26 22:05 55.04116 -7.17053 29 ft 24 kts 252°
2026-04-26 22:05 55.04066 -7.17334 26 ft 25 kts 252°
2026-04-26 22:05 55.04011 -7.17504 27 ft 15 kts 234°
2026-04-26 22:05 55.04004 -7.17647 24 ft 11 kts 329°
2026-04-26 22:06 55.04033 -7.17562 25 ft 10 kts 85°
2026-04-26 22:06 55.04064 -7.17356 28 ft 26 kts 73°
2026-04-26 22:06 55.04124 -7.17008 25 ft 32 kts 73°
2026-04-26 22:06 55.04192 -7.16624 24 ft 34 kts 73°
2026-04-26 22:07 55.04259 -7.16240 17 ft 29 kts 72°
2026-04-26 22:07 55.04300 -7.16018 17 ft 13 kts 74°
2026-04-26 22:07 55.04246 -7.15934 17 ft 10 kts 168°
2026-04-26 22:07 55.04181 -7.15911 18 ft 9 kts 167°
2026-04-26 22:08 55.04128 -7.15890 18 ft 7 kts 167°
2026-04-26 22:08 55.04083 -7.15858 18 ft 7 kts 138°
2026-04-26 22:08 55.04075 -7.15780 18 ft 7 kts 79°
2026-04-26 22:08 55.04080 -7.15731 18 ft 2 kts 79°
2026-04-26 22:09 55.04080 -7.15710 18 ft 1 kts 115°
2026-04-26 22:09 55.04067 -7.15698 18 ft 4 kts 152°
2026-04-26 22:09 55.04042 -7.15688 18 ft 3 kts 167°
2026-04-26 22:09 55.04025 -7.15681 18 ft 2 kts 168°
2026-04-26 22:10 55.04020 -7.15679 18 ft 0 kts 168°